Wind_Speed
21 20 20 19 19 19 18 17 16 15 15 15 15 14 14 13 13 12 12 12 12 12 12 11 12 12 12 11 11 11 10 10 9 9 9 8 7 7 5 6 7 7 7 7 6 6 5 5 5 6 6 6 6 7 8 8 9 10 10 10 9 9 11 12 9 8 10 11 12 14 14 14 15 14 14 14 14 14 16 15 16 17 20 22 20
21 20 19 19 18 19 19 18 17 16 15 15 15 13 13 13 12 12 12 12 12 13 12 12 11 11 11 11 10 10 10 10 9 9 9 8 8 8 7 7 8 7 7 7 7 7 6 6 7 7 7 8 8 8 8 8 9 9 9 8 7 7 8 8 7 7 9 10 12 13 14 14 15 14 14 15 15 15 16 16 15 16 18 19 19
24 22 20 20 19 18 19 18 18 17 16 16 15 14 14 13 12 12 12 12 12 12 12 12 12 12 11 11 10 9 10 11 10 9 9 9 9 8 8 8 9 8 8 8 8 8 8 8 8 7 8 9 9 8 7 7 8 9 8 8 8 8 7 8 8 7 8 11 12 13 14 14 15 16 16 15 15 16 16 16 15 16 17 18 18
25 24 22 21 20 19 19 18 18 18 17 16 16 15 15 14 13 12 12 12 11 11 12 12 12 13 11 10 11 10 10 11 10 9 9 9 9 9 8 8 8 8 9 9 9 9 9 9 9 8 8 9 8 7 8 8 8 8 8 8 8 8 9 9 9 8 10 12 12 13 14 15 17 16 15 15 15 14 15 15 15 16 16 15 15
24 25 23 21 21 20 20 19 18 18 17 17 16 16 15 15 14 13 12 12 12 12 12 12 12 13 12 11 11 11 10 10 10 10 9 8 8 8 8 8 9 9 9 9 9 10 10 10 9 8 8 9 8 7 8 8 8 8 8 8 7 7 8 9 9 9 11 12 13 14 16 17 17 16 14 15 15 14 14 15 15 16 16 14 14
25 25 23 22 21 21 21 19 19 19 18 17 16 15 15 15 14 13 12 12 13 13 11 12 13 13 12 11 11 12 12 11 10 10 9 8 8 8 8 9 9 10 10 10 10 10 11 11 11 9 8 9 9 8 8 7 7 7 8 8 8 7 7 9 9 9 11 12 13 15 16 16 14 13 13 14 14 15 16 16 16 17 16 13 14
25 25 23 22 22 21 21 20 19 18 18 17 16 15 16 16 15 13 12 12 12 14 13 12 13 14 13 12 11 11 12 11 10 11 9 9 9 9 10 10 9 10 11 11 11 11 12 12 11 11 10 10 9 9 9 8 8 8 8 8 8 7 8 9 10 10 11 11 12 13 14 14 14 14 14 13 13 15 17 18 17 16 13 12 15
21 24 23 21 22 22 21 20 20 18 18 18 17 16 17 20 18 15 14 13 12 14 14 13 12 13 13 12 10 11 12 12 12 12 11 10 10 11 11 10 9 10 12 12 10 11 13 13 11 10 10 9 9 9 9 8 7 6 6 7 6 6 8 9 10 10 11 11 12 13 14 16 17 17 15 12 12 15 16 16 15 13 15 16 19
19 22 22 21 21 22 21 20 19 18 16 17 18 17 14 18 21 19 17 16 14 15 16 15 13 13 13 13 13 11 12 13 13 12 13 13 12 9 9 10 10 10 12 12 10 10 13 12 10 8 7 7 8 10 10 9 8 8 8 8 7 7 8 9 10 11 11 12 12 13 15 16 16 15 14 13 15 16 17 16 16 18 21 22 23
17 19 20 20 20 21 21 20 19 18 15 13 16 17 13 12 17 20 20 18 16 17 18 16 15 15 14 14 14 11 10 12 13 13 13 13 12 9 8 9 10 10 12 12 11 11 11 11 11 11 9 9 10 11 12 13 13 13 13 12 12 12 12 12 11 12 12 12 12 13 14 14 15 16 16 17 17 18 19 20 20 22 22 21 21
17 19 19 17 15 15 15 14 15 18 15 10 12 15 15 11 10 13 16 17 16 15 15 15 16 16 15 15 14 11 11 12 12 14 14 14 13 10 8 8 9 9 10 11 11 11 11 11 12 10 8 10 11 11 12 15 14 13 13 12 12 13 15 15 14 14 13 12 13 13 13 15 15 16 16 16 17 18 19 19 19 20 19 17 18
16 20 19 15 12 12 10 6 4 2 3 3 5 10 12 10 8 7 9 12 13 11 11 12 12 12 12 14 13 12 12 13 13 14 15 15 14 12 9 7 8 9 9 9 10 11 12 12 10 6 5 8 9 8 10 12 12 12 11 11 12 13 14 16 17 18 17 15 14 14 14 15 15 15 15 15 17 18 18 18 17 18 18 17 17
14 18 18 14 10 11 13 8 3 2 2 7 9 10 11 12 11 8 6 8 11 11 12 12 11 11 10 8 12 14 13 13 14 15 15 15 15 15 12 9 8 10 11 11 11 10 10 9 7 5 4 6 6 5 6 7 8 10 11 11 12 12 13 15 16 18 19 19 18 17 16 15 15 15 14 13 15 17 18 18 17 16 17 19 20
10 12 13 11 8 9 12 12 12 12 15 19 17 15 15 16 16 13 11 9 8 8 8 8 7 8 7 4 11 15 13 12 13 13 14 14 14 14 13 10 9 11 12 11 8 5 4 5 6 5 4 4 4 4 4 4 5 8 10 10 10 12 14 15 14 14 16 18 19 19 19 18 16 14 12 12 15 17 18 17 17 17 19 20 20
10 10 8 7 8 11 13 15 15 15 18 23 22 18 18 18 17 16 15 12 5 4 6 8 6 4 1 5 9 11 10 10 10 10 11 12 12 12 11 9 9 9 7 4 3 3 3 4 5 5 4 3 4 4 4 5 5 7 10 10 10 12 13 12 10 9 9 9 10 13 14 13 12 11 13 15 17 16 16 16 17 18 18 18 18
11 11 8 7 11 15 16 18 17 16 18 22 23 20 17 15 15 14 13 11 8 6 7 8 8 4 1 4 6 7 7 7 7 8 8 8 8 8 6 5 5 5 4 4 3 2 2 4 5 4 3 4 4 5 5 5 4 6 10 10 10 11 11 11 11 11 10 9 8 9 9 10 11 12 15 16 16 17 17 18 18 16 16 16 16
7 7 7 8 13 18 18 18 19 21 21 20 18 17 14 12 12 12 9 7 9 13 11 6 6 7 7 8 8 7 6 5 5 6 6 6 6 4 1 2 2 2 4 5 3 3 3 4 4 2 4 6 6 7 7 7 7 8 9 9 10 11 11 11 11 11 12 13 13 14 15 15 14 14 15 14 14 16 16 15 14 13 13 12 11
4 6 7 6 9 13 15 14 15 18 18 15 14 13 11 10 9 7 6 6 8 13 14 9 10 12 12 11 10 9 7 5 4 5 4 4 4 3 1 2 0 3 4 4 2 2 2 2 2 2 4 7 8 10 10 10 9 9 9 9 10 10 9 11 13 15 17 18 17 16 16 15 14 13 12 12 12 14 14 12 12 12 12 11 11
2 3 4 3 5 8 11 11 12 13 13 13 14 14 11 9 6 4 5 8 10 11 13 11 13 15 14 13 12 11 10 8 5 3 2 2 2 3 2 1 3 4 4 4 2 0 2 3 3 4 5 7 8 9 9 9 8 8 7 7 8 9 10 14 16 17 17 17 16 15 14 13 12 11 10 11 11 13 14 14 14 14 12 12 13
6 6 4 3 4 6 8 10 11 12 13 14 14 13 11 9 9 9 11 14 15 14 14 14 15 15 14 14 14 13 12 11 9 6 5 4 4 5 6 6 6 7 8 6 3 2 3 4 5 7 7 8 8 8 7 7 7 6 6 6 7 8 11 13 13 13 14 15 14 14 13 12 11 10 10 11 11 13 15 16 16 15 12 12 14
11 10 10 8 8 9 12 12 12 13 14 15 14 12 11 12 13 15 17 19 20 19 16 16 16 16 15 16 16 15 14 13 12 10 9 8 6 6 9 10 9 9 9 8 6 4 4 5 7 9 8 7 8 8 9 9 9 8 7 6 5 6 8 10 12 13 13 14 13 12 12 12 12 11 12 12 12 13 15 15 15 15 14 14 15
17 17 17 17 16 15 15 16 15 15 16 17 17 17 16 16 19 21 22 22 22 21 19 18 18 18 19 18 18 18 16 15 14 13 12 11 10 10 12 12 9 5 5 5 5 4 3 5 7 7 7 6 6 7 8 9 10 10 8 6 5 6 8 10 11 12 12 12 12 12 12 12 12 12 12 12 13 14 15 14 14 14 15 15 16
21 23 22 20 19 18 17 17 17 17 18 18 18 19 19 19 21 22 23 23 23 22 21 20 20 21 20 19 19 19 18 17 17 16 15 14 14 13 13 13 12 9 6 7 7 4 3 5 5 5 6 6 6 7 8 9 9 9 8 7 6 6 8 10 10 10 10 11 11 11 11 12 12 13 13 14 15 16 14 13 13 14 15 15 15
20 21 21 20 21 20 20 19 18 18 19 19 19 18 18 18 20 19 19 20 21 21 19 19 18 18 17 16 17 18 18 19 18 16 15 14 13 13 12 11 11 10 9 8 7 4 3 4 4 5 6 6 6 7 8 9 10 10 9 9 9 8 8 9 9 10 10 10 11 11 11 12 12 13 14 15 14 13 12 11 14 16 15 14 15
16 17 17 18 18 18 18 18 17 17 18 18 17 16 15 15 16 15 15 15 16 16 15 14 14 14 13 12 13 13 14 16 17 15 14 12 11 10 11 10 9 9 8 6 5 4 3 4 4 5 5 5 5 6 7 9 11 11 11 11 11 10 9 10 10 11 11 11 12 12 12 12 13 13 13 13 12 11 12 14 17 17 16 16 17
12 14 15 16 16 16 17 17 17 17 17 16 16 15 14 13 12 12 12 12 12 13 12 12 12 12 11 11 12 12 13 13 12 10 10 10 9 8 8 8 8 8 6 3 2 1 2 4 5 5 5 5 5 5 6 9 11 11 10 11 10 9 10 11 10 11 12 12 12 13 12 13 13 13 13 13 13 14 15 17 18 17 17 19 19
10 11 12 12 12 13 14 14 15 16 16 15 14 13 13 12 12 12 10 8 7 9 10 10 10 10 10 10 11 12 13 12 10 8 8 8 8 7 6 7 7 6 5 3 2 1 3 6 7 7 6 6 6 4 4 7 10 9 9 9 9 9 9 9 9 11 12 11 12 13 13 13 14 14 14 14 14 15 16 17 17 17 18 19 18
8 9 8 8 11 11 10 11 15 17 16 15 13 12 12 11 12 14 12 10 8 8 10 9 8 9 10 10 10 12 13 12 10 8 6 6 7 7 8 8 7 6 6 6 5 4 6 7 6 7 7 7 7 6 5 6 8 8 8 9 9 10 10 8 10 12 12 12 12 13 14 14 14 14 15 15 15 16 16 16 17 17 18 17 16
6 6 7 10 12 10 7 10 15 17 17 18 17 15 14 12 13 14 13 12 11 11 12 14 12 12 12 10 11 14 14 11 10 8 7 7 8 9 9 9 8 8 7 7 7 8 8 8 6 6 8 8 9 9 8 9 9 10 10 10 9 10 11 11 13 14 13 12 13 13 14 14 13 14 15 15 16 16 16 16 17 17 17 16 15
5 6 8 9 8 4 5 11 16 17 16 16 17 17 15 13 13 14 14 13 12 11 12 14 13 12 13 14 13 14 13 11 9 8 7 8 9 10 10 9 8 8 7 6 7 8 7 7 7 9 9 9 10 10 10 11 11 11 11 10 10 11 11 13 15 14 12 12 13 13 13 13 13 14 15 15 16 17 16 16 17 17 17 17 16
4 6 6 5 3 4 7 14 17 16 15 13 12 13 14 13 12 13 12 11 11 11 12 12 11 11 12 14 14 12 12 11 9 7 7 8 9 10 9 9 8 8 8 9 10 11 9 8 9 9 9 9 10 10 10 10 11 11 10 10 11 11 11 14 15 12 11 12 14 13 13 13 14 15 15 15 16 17 16 16 16 17 16 16 16
3 5 5 3 2 6 11 14 15 13 12 11 9 9 10 10 10 10 10 9 9 9 9 10 10 11 11 11 11 11 10 8 7 6 7 8 7 8 9 9 9 9 10 11 13 13 12 11 11 10 10 10 10 9 10 10 10 10 10 11 11 12 12 14 13 12 12 14 14 13 13 13 14 15 15 15 16 16 16 16 16 16 16 16 16
7 7 6 5 4 6 9 11 12 10 9 7 7 7 7 8 8 7 7 7 7 7 8 8 8 8 8 8 8 8 7 6 6 6 7 7 6 6 8 9 10 10 11 12 12 12 11 12 12 11 11 11 10 10 10 10 10 10 11 11 11 12 13 13 13 14 15 15 14 13 13 14 15 15 15 16 16 16 16 17 17 17 17 17 17
10 9 7 6 7 7 7 7 8 8 6 4 5 5 5 7 9 8 6 5 6 7 8 8 8 7 7 6 5 5 5 5 6 6 6 6 5 5 6 7 8 9 11 12 12 11 11 11 11 11 10 10 10 10 10 11 10 11 11 11 11 12 12 12 14 15 15 14 13 13 13 14 14 15 16 17 17 17 17 17 17 18 18 18 19
7 7 6 7 8 7 6 6 6 4 3 2 2 1 2 4 5 6 7 6 6 7 7 8 8 8 8 7 6 5 5 5 6 6 6 5 5 6 8 8 7 7 8 10 11 11 11 10 10 10 10 10 10 11 11 11 11 11 11 11 12 12 12 12 14 14 13 13 13 13 13 13 14 15 16 16 17 17 17 17 17 17 18 18 19
4 5 5 6 6 5 5 5 4 4 4 2 3 3 3 1 2 3 4 4 4 8 10 7 5 7 9 10 9 7 7 8 9 8 7 7 7 7 8 9 7 6 7 9 9 8 8 9 8 9 9 10 10 11 10 10 11 11 11 11 12 12 11 12 13 13 12 13 13 13 13 14 14 15 15 15 15 16 16 16 17 18 18 19 19
3 4 4 4 4 4 4 5 4 3 3 1 3 5 4 2 5 5 4 3 1 6 11 10 7 7 7 7 8 9 8 9 10 10 10 9 8 7 8 7 6 5 7 9 8 6 6 7 7 8 9 9 10 10 10 10 10 10 11 12 12 12 12 12 12 12 13 13 13 14 15 14 14 14 13 13 14 14 14 16 17 17 17 18 18
5 5 5 4 3 4 5 5 4 3 1 1 1 3 3 5 6 6 4 4 3 3 7 7 6 7 7 7 7 6 5 5 5 6 8 7 6 6 7 6 5 6 8 8 7 7 8 8 9 9 9 9 9 9 10 10 10 10 11 11 11 11 12 12 12 13 14 14 15 16 16 15 15 15 15 15 15 16 17 18 18 17 17 18 18
5 4 4 5 5 6 6 5 3 1 2 3 4 4 6 7 6 5 5 4 3 3 3 2 3 6 9 9 7 3 5 7 4 3 4 3 5 6 5 5 6 7 7 7 7 8 8 9 9 9 9 9 9 9 10 10 10 11 11 12 12 12 13 13 14 13 13 14 15 16 16 17 18 19 18 17 17 18 19 20 20 19 19 18 17
6 4 4 5 6 7 7 5 2 2 4 7 8 8 7 7 7 6 6 5 4 4 4 1 7 10 9 7 4 2 4 8 8 2 3 3 5 6 6 6 7 7 7 8 8 8 8 9 9 9 9 9 9 10 11 11 11 12 12 12 12 13 13 15 15 15 14 14 15 16 18 20 20 19 18 17 18 19 20 21 21 21 20 20 20
6 4 3 4 6 7 7 5 3 5 7 10 11 10 9 8 7 6 6 6 5 5 4 4 9 8 5 3 4 4 3 4 7 6 5 5 4 5 5 5 6 6 6 7 7 7 8 8 8 9 9 10 10 11 12 12 12 13 12 12 12 12 12 13 14 14 15 15 15 17 18 19 19 18 17 18 19 20 20 21 21 22 22 22 22
6 6 5 5 6 7 7 7 8 9 10 10 11 10 8 7 7 6 6 6 5 5 5 4 7 5 2 4 5 4 5 2 3 5 5 5 5 5 5 5 5 6 7 7 7 7 7 7 8 8 9 10 11 11 11 12 12 12 12 12 12 11 11 13 14 14 15 15 15 16 17 17 17 17 17 18 19 19 19 20 21 21 21 21 21
7 8 7 6 7 9 9 9 10 10 9 10 9 8 6 6 6 6 6 6 5 5 4 5 8 6 4 5 4 5 6 4 2 4 6 5 5 5 5 7 8 8 8 7 7 7 7 7 8 8 9 9 10 10 10 10 11 11 12 12 11 11 13 14 15 15 15 14 14 15 16 16 17 18 18 18 19 18 19 19 19 19 20 20 21
6 8 9 8 9 10 9 7 8 9 9 9 7 5 5 6 6 6 6 6 5 5 4 5 8 8 7 6 6 6 5 4 4 5 6 5 6 6 7 9 10 9 8 7 8 8 7 7 8 8 8 9 9 9 9 9 10 11 10 9 10 11 13 15 15 15 14 14 14 14 16 17 18 19 18 18 19 19 19 19 19 19 20 20 22
5 7 8 8 9 11 11 9 9 9 8 7 6 6 6 7 7 7 7 7 7 6 4 4 6 7 6 5 4 4 4 5 5 6 5 6 6 7 7 9 9 8 7 6 6 6 7 7 7 7 8 8 8 8 8 8 9 9 8 8 10 12 14 15 14 13 13 15 16 16 16 17 18 18 18 18 19 19 19 20 20 20 21 21 22
6 6 7 9 10 11 11 9 9 9 9 7 7 7 7 7 8 7 6 5 6 6 5 4 4 4 3 4 5 5 5 5 5 5 6 6 6 5 7 8 8 7 6 6 6 6 6 6 7 7 7 8 8 8 8 8 8 8 7 9 11 13 14 15 14 13 15 19 18 16 16 17 17 17 18 18 19 19 19 20 20 20 20 21 22
7 7 8 9 10 9 8 8 8 8 8 8 8 8 8 9 10 9 5 3 3 4 4 4 4 4 4 4 5 5 5 5 5 5 5 5 5 5 6 7 7 6 6 6 6 6 6 6 7 7 7 7 8 9 8 8 8 8 8 10 13 14 16 17 17 17 20 22 20 16 16 17 17 17 17 18 19 19 19 20 20 20 20 20 21
7 8 8 8 9 9 9 9 8 8 8 9 11 11 10 9 9 7 5 4 4 3 2 3 4 4 5 6 6 5 5 5 5 4 4 5 5 6 6 6 6 6 6 6 6 6 6 7 7 7 8 8 9 8 8 9 9 8 8 11 13 15 17 19 20 21 23 23 21 20 20 19 18 18 18 19 18 19 20 20 20 20 20 20 21
7 7 7 8 9 9 10 10 9 9 10 11 10 9 8 8 7 6 5 6 6 5 3 3 5 5 6 5 4 4 5 5 4 4 4 4 5 5 5 5 5 5 5 6 6 7 7 7 7 7 8 8 8 8 9 9 8 7 9 12 14 16 19 21 21 22 23 22 22 24 25 23 19 18 18 18 18 19 19 20 20 21 20 20 21
10 10 8 8 8 8 8 9 10 9 8 8 7 7 7 7 7 6 6 6 6 5 4 4 5 5 4 5 5 5 5 4 4 4 4 4 4 4 4 4 5 5 5 6 6 7 7 7 7 7 7 8 8 8 8 8 8 9 11 13 15 18 20 20 20 20 21 22 24 26 25 21 18 17 18 18 18 19 19 19 20 20 21 22 22
11 11 10 9 9 8 8 9 9 8 7 7 7 7 7 6 6 6 6 5 5 5 5 5 5 4 5 5 5 4 4 3 3 3 3 3 4 4 5 5 5 5 6 6 6 7 7 7 7 7 7 7 8 8 8 8 9 10 12 14 17 18 18 17 18 19 21 23 26 25 20 16 16 17 17 18 18 18 19 20 21 21 22 22 21
Wind_Direction
182 184 186 185 184 184 189 192 191 192 190 187 190 190 189 192 192 191 188 186 185 184 188 191 189 191 193 197 199 194 193 199 201 200 204 212 218 226 227 212 215 231 244 254 261 261 257 250 253 258 259 262 269 274 277 272 254 240 235 236 237 240 239 234 237 266 284 291 297 300 306 311 310 312 317 319 317 315 314 314 312 312 313 315 321
182 186 187 188 187 185 188 192 193 194 193 192 194 193 191 194 195 193 190 189 190 191 192 194 195 194 194 200 202 197 195 200 204 204 206 212 218 224 227 222 227 237 243 250 258 264 264 257 256 257 255 255 253 257 268 274 276 274 259 247 254 260 251 242 247 269 286 294 301 303 305 310 313 316 319 318 315 313 314 315 314 316 321 327 332
182 184 188 189 190 191 191 192 194 197 196 196 196 194 193 195 198 199 196 193 194 196 195 195 196 195 197 200 199 201 202 200 206 211 210 213 218 224 230 228 228 233 239 246 248 251 255 255 257 257 258 259 251 250 266 273 285 298 298 300 310 309 303 298 290 287 291 295 300 304 306 311 315 313 313 314 313 313 319 323 322 320 321 325 327
180 182 188 190 191 193 195 195 196 198 198 199 198 195 193 193 196 202 201 196 195 200 203 201 194 191 197 200 196 201 205 201 207 215 214 217 220 226 235 235 235 235 238 244 246 247 248 248 253 254 258 270 267 260 269 274 279 288 290 293 298 294 294 299 300 300 300 298 297 301 305 307 306 306 308 311 313 315 319 319 316 313 314 318 323
179 182 188 192 192 193 196 198 199 199 201 202 201 199 195 193 197 202 202 201 198 196 199 202 196 191 196 204 200 202 208 208 210 215 217 220 221 226 235 239 244 247 249 252 251 250 252 251 254 253 256 267 271 266 266 267 273 279 282 288 288 286 290 296 301 300 294 293 298 303 304 301 301 306 311 312 314 315 314 312 313 315 310 306 316
181 184 188 193 196 197 198 199 200 202 202 203 204 200 192 190 196 200 203 206 201 199 201 201 199 195 199 207 206 207 211 212 215 218 219 222 223 228 232 236 244 248 251 258 259 255 253 252 253 252 254 260 262 266 270 269 273 276 278 287 291 292 294 294 295 296 293 292 296 300 303 301 303 309 313 314 311 307 303 302 308 314 308 304 320
185 186 189 194 200 202 202 201 203 205 203 205 207 199 190 192 198 199 203 206 203 206 210 204 199 200 204 209 210 212 213 213 216 217 217 223 229 233 233 235 245 248 246 252 261 263 257 253 253 248 245 252 258 265 271 269 270 275 277 283 290 292 296 297 297 298 301 301 299 299 302 305 307 304 301 302 303 301 295 289 294 311 322 326 330
188 187 190 196 201 205 206 204 206 207 204 207 213 208 196 194 198 200 202 206 206 208 210 208 206 205 206 209 210 213 215 215 216 217 216 223 233 241 243 244 249 253 252 252 260 271 268 261 257 249 243 248 252 255 264 266 264 271 281 291 299 301 301 301 302 303 304 302 301 301 302 303 302 297 293 293 298 303 304 298 302 326 341 334 326
192 188 193 200 202 205 208 207 209 213 209 204 213 223 212 195 194 199 203 206 209 210 209 211 215 211 207 209 208 209 217 219 220 223 224 226 230 238 244 246 250 256 261 261 262 272 276 273 268 258 252 253 245 245 254 256 255 264 277 286 291 293 295 295 296 300 303 301 301 302 303 302 303 309 319 320 316 321 332 339 340 339 336 327 322
196 192 196 206 207 205 206 206 207 214 217 207 209 225 233 213 198 197 198 202 208 213 208 202 204 207 208 210 207 204 210 216 221 226 227 228 229 230 235 241 249 257 264 269 271 275 280 284 281 271 262 260 256 254 255 252 255 267 274 278 280 279 281 285 287 289 293 296 299 303 304 306 313 325 330 327 328 337 346 345 337 330 327 324 321
200 197 197 208 215 212 212 213 208 209 214 214 207 216 231 239 223 204 200 204 210 215 210 203 204 207 204 200 200 202 208 214 221 223 222 223 224 224 233 245 254 264 269 270 276 283 287 291 290 284 274 267 260 256 256 255 262 272 275 276 279 278 278 280 281 283 286 290 295 299 301 305 312 318 321 323 329 335 334 330 325 323 324 324 319
205 206 205 210 216 215 218 247 297 260 224 223 200 202 217 233 243 231 215 214 216 217 217 219 220 219 208 192 187 202 216 216 218 219 217 219 222 222 231 247 257 268 273 270 274 282 283 287 298 315 310 286 271 261 266 269 272 274 273 277 283 283 282 280 277 279 281 283 286 289 291 297 305 313 320 326 330 329 328 326 325 324 322 319 311
203 213 219 218 209 197 199 217 285 359 187 213 206 197 205 217 225 229 224 224 227 225 223 226 227 230 230 199 184 200 212 207 207 212 214 219 222 223 229 245 262 270 277 281 283 284 284 295 327 2 340 301 287 274 277 283 285 284 281 280 285 292 295 291 285 281 277 273 272 276 283 292 303 314 321 325 328 330 330 328 327 324 318 311 306
208 218 223 218 208 191 183 197 212 200 199 211 213 203 204 211 215 214 210 214 237 253 245 243 245 242 239 174 166 185 193 191 196 205 209 214 218 221 227 241 263 271 277 285 293 305 317 323 349 14 10 325 300 287 283 280 300 318 315 304 303 309 308 305 302 295 286 280 276 280 288 293 299 312 323 329 333 335 331 326 325 322 314 309 311
226 225 217 202 202 195 188 193 197 190 196 210 215 210 205 207 209 210 206 202 219 293 271 253 264 285 51 116 143 158 167 176 187 197 206 212 219 227 235 246 263 275 289 308 327 5 30 33 26 26 29 7 334 327 320 295 292 324 330 326 324 321 316 320 332 339 332 319 305 300 301 301 304 316 330 335 336 335 330 325 324 322 316 315 320
231 227 223 204 190 193 203 205 194 187 196 206 212 211 206 203 206 210 208 199 195 214 227 230 241 255 116 158 161 142 146 171 187 200 210 217 225 234 245 257 271 299 347 22 42 37 50 75 73 49 19 10 359 353 348 331 308 315 325 330 331 325 321 326 334 342 345 340 333 328 322 317 317 322 329 333 332 331 331 332 335 334 328 325 326
231 220 215 194 177 185 203 207 194 190 195 197 203 209 207 202 205 207 201 188 189 201 204 197 198 194 180 179 172 148 144 167 190 207 215 221 220 210 222 287 297 24 42 43 50 57 67 98 108 62 5 358 348 338 336 335 329 327 330 334 329 323 325 325 321 323 323 319 320 324 323 322 323 325 329 334 335 337 341 344 347 344 338 334 330
229 217 206 173 154 175 194 198 190 189 190 189 196 209 208 200 202 203 187 153 155 189 201 178 140 146 153 156 157 150 138 136 169 200 213 227 219 197 216 282 254 106 86 61 44 46 53 62 65 12 351 341 335 329 326 326 329 335 339 336 329 327 333 333 327 324 322 320 322 326 327 330 336 340 344 349 352 356 358 357 355 353 348 342 334
140 187 203 177 152 169 188 194 189 185 184 182 189 201 202 191 179 155 145 136 132 165 192 171 128 126 133 134 136 136 127 116 120 149 164 177 166 144 135 129 113 113 100 72 55 3 17 28 23 10 357 349 343 337 331 332 336 343 349 346 339 335 327 324 327 330 331 333 333 334 335 341 350 358 2 1 1 0 357 355 356 357 350 341 340
86 96 115 164 176 162 165 173 171 166 162 161 167 177 177 164 149 128 121 124 129 145 164 153 130 125 128 125 120 116 112 105 98 95 97 116 137 129 111 101 99 101 98 88 86 92 58 41 28 20 17 13 12 10 7 7 9 14 15 359 341 333 325 327 337 342 338 337 336 335 340 349 359 6 5 3 2 355 350 353 357 356 351 345 346
78 85 97 113 125 125 129 134 133 132 134 136 137 135 130 127 129 128 125 126 127 129 134 134 128 122 121 119 114 106 101 97 94 90 87 93 107 111 102 100 107 118 114 101 98 104 79 40 16 13 17 16 19 23 24 29 34 30 19 4 354 355 352 354 360 353 341 340 343 345 351 358 4 8 8 11 9 355 349 351 353 355 355 348 342
82 87 90 95 99 104 111 114 112 107 110 115 115 110 108 110 112 114 116 119 120 119 119 121 117 108 103 102 101 98 96 94 93 91 87 88 90 94 97 97 96 110 129 107 89 79 47 20 7 10 21 23 28 33 33 33 31 21 15 24 41 38 23 11 3 353 347 349 351 353 358 1 3 5 7 8 2 351 349 351 352 355 354 345 339
87 88 86 85 88 93 96 99 100 97 97 101 102 100 101 103 104 106 107 110 113 114 113 112 107 100 96 95 94 93 91 89 88 86 84 83 83 87 97 102 99 94 96 90 77 63 41 33 27 30 37 38 43 46 44 43 38 32 36 44 38 25 18 9 359 351 351 355 356 357 0 1 2 3 1 357 350 348 352 353 348 348 346 341 337
88 85 81 79 82 86 89 90 92 95 96 96 97 98 99 100 101 102 103 108 112 113 112 112 108 104 103 99 94 91 87 84 80 78 77 74 75 79 87 99 107 104 96 85 70 53 45 39 31 34 41 47 53 46 42 47 48 48 49 39 28 25 22 12 2 356 356 0 1 1 1 1 1 358 351 347 344 347 352 347 339 341 344 339 334
92 90 87 85 84 86 88 87 87 90 93 94 96 99 102 104 107 107 107 112 115 114 115 116 115 115 117 112 103 96 89 80 72 68 64 59 61 73 78 81 88 89 84 79 65 45 31 19 15 28 41 49 54 50 43 41 41 43 40 34 35 38 26 15 13 8 5 4 1 0 2 0 357 353 348 347 351 354 351 344 341 345 347 341 340
96 100 99 98 97 97 97 93 86 83 84 85 85 86 88 94 102 106 108 114 119 121 125 127 126 125 124 122 118 112 100 87 78 77 78 67 58 67 77 81 84 80 67 56 47 52 61 47 33 32 37 35 34 46 51 38 31 33 30 24 32 38 23 17 23 17 8 4 360 358 359 355 352 354 355 356 360 358 352 349 348 349 349 344 344
97 102 104 109 110 105 104 104 93 81 78 79 77 72 71 81 90 88 81 81 103 127 135 138 142 141 136 134 133 123 110 100 92 95 100 89 69 61 69 79 83 78 63 53 57 67 69 61 41 21 12 7 3 7 39 35 28 29 25 18 30 43 35 28 31 20 8 2 358 355 355 355 356 360 0 359 359 355 352 352 351 349 348 346 343
100 109 113 113 108 103 104 106 95 85 83 87 86 75 70 77 81 78 67 53 57 87 100 93 99 122 136 143 137 124 114 104 92 86 87 79 65 58 63 70 73 67 56 55 65 69 58 48 31 10 4 9 14 15 30 40 34 30 25 21 29 43 43 33 26 17 6 2 0 357 356 358 359 360 358 356 354 351 349 352 351 347 347 347 342
81 81 71 77 89 102 115 109 98 92 88 86 84 81 81 84 82 78 71 60 57 74 88 82 81 100 120 130 131 126 119 105 91 85 77 67 63 62 62 64 66 65 59 54 61 66 54 37 27 21 17 24 35 32 29 37 36 28 24 23 24 35 39 29 19 12 5 3 1 358 357 358 358 358 356 353 351 349 348 349 348 345 346 346 343
89 77 65 72 81 97 116 105 101 101 94 85 80 81 83 85 84 79 73 66 64 73 84 84 84 95 103 107 116 123 118 106 96 89 74 64 64 64 62 61 61 64 66 60 53 48 38 32 40 40 28 30 39 30 21 30 32 22 20 20 20 30 36 26 16 9 4 4 2 357 357 358 357 357 355 351 349 349 348 349 347 345 347 347 343
101 97 84 76 50 41 86 97 97 98 98 92 89 89 84 79 77 74 70 65 63 64 71 76 78 83 89 95 101 104 102 98 94 81 68 68 72 69 69 71 68 61 58 53 44 35 32 43 54 47 32 36 44 31 20 29 30 20 17 18 20 29 30 19 13 10 6 4 360 356 358 1 358 356 353 349 349 349 348 349 349 346 346 346 343
82 126 131 131 54 64 92 102 101 100 104 107 111 112 103 92 82 72 67 65 61 59 61 63 64 68 75 83 90 92 91 88 82 70 67 71 77 76 74 74 71 62 55 50 44 38 38 45 50 45 35 38 42 32 25 29 26 19 20 18 17 22 20 12 11 14 10 2 357 356 1 1 357 354 353 351 350 348 347 349 349 347 347 346 344
53 92 124 139 105 82 92 102 106 112 120 126 139 152 149 134 118 94 73 65 61 57 52 46 43 49 56 60 67 73 74 67 56 53 59 67 78 83 76 74 75 72 63 54 46 42 43 45 45 42 37 34 33 30 28 28 23 19 20 19 15 16 14 10 11 12 6 360 356 357 359 358 355 355 355 354 351 349 349 350 349 349 350 348 345
57 67 92 109 98 87 86 95 107 124 142 154 169 184 183 160 144 136 126 107 86 66 54 47 39 31 30 34 34 33 37 38 29 33 51 71 87 80 63 64 78 77 64 54 47 43 45 47 44 40 36 32 31 29 26 24 23 20 17 15 13 11 8 8 8 6 2 358 356 357 356 356 358 358 355 353 353 351 350 349 347 348 350 348 342
58 65 87 96 87 81 83 90 98 114 131 170 223 219 158 154 156 159 164 160 139 116 96 73 57 48 45 44 38 26 27 38 41 48 66 91 99 75 51 50 69 78 67 59 54 47 43 43 40 36 34 31 28 27 24 21 20 17 14 12 8 4 2 2 1 0 0 358 355 354 355 358 1 0 355 353 354 352 348 347 347 348 348 343 337
67 71 90 104 103 96 90 89 79 56 53 36 319 348 42 77 253 230 197 191 159 138 135 125 89 75 68 57 55 65 79 79 76 77 88 100 96 68 42 40 55 73 73 66 60 51 45 43 39 35 33 29 26 25 21 17 14 13 13 10 2 356 356 358 356 357 359 356 352 355 0 360 358 357 354 351 350 347 344 346 347 345 341 335 330
142 107 101 116 134 135 112 97 90 74 70 59 334 345 359 300 278 271 233 227 228 139 139 139 132 116 95 70 68 82 89 88 91 94 93 91 81 57 40 38 42 55 67 67 57 49 52 50 43 38 33 28 25 21 14 11 10 9 6 3 358 356 357 356 356 359 359 355 356 1 1 355 353 355 354 350 347 346 345 344 341 335 332 330 328
170 158 137 129 133 137 128 114 105 106 119 143 328 318 278 243 254 266 249 235 240 169 146 147 152 150 136 108 89 79 55 44 79 105 100 85 69 51 46 48 42 45 57 60 48 44 49 46 40 37 31 24 21 17 11 7 5 2 359 356 354 356 356 355 358 3 2 1 1 360 356 356 1 7 6 0 355 352 347 340 334 330 330 332 333
172 192 181 154 136 134 140 138 131 156 216 222 229 258 266 253 245 251 255 247 229 209 207 195 122 119 121 115 104 76 10 353 331 208 170 109 67 62 56 53 53 51 51 51 46 43 42 38 33 30 25 19 17 13 8 5 1 359 359 357 355 357 359 359 1 3 2 1 359 357 359 6 10 11 8 2 356 350 343 336 332 330 329 328 329
168 197 215 184 159 151 150 145 148 223 235 227 223 226 239 247 241 236 241 238 215 214 232 163 90 92 106 109 87 24 348 344 337 311 145 94 60 64 59 50 53 51 46 48 48 40 34 32 30 24 19 18 16 11 7 5 3 359 359 359 359 359 359 359 2 5 6 4 2 2 6 9 7 4 2 357 351 345 339 334 331 330 328 326 323
168 168 190 195 182 169 156 147 175 223 223 220 222 219 215 225 235 235 236 233 211 209 215 124 91 86 95 70 359 316 273 319 350 26 83 80 59 63 57 48 52 50 44 47 45 35 30 29 23 19 18 16 13 10 7 4 1 358 357 356 354 354 358 5 13 16 13 9 5 4 3 1 357 355 353 348 343 339 334 330 328 325 323 320 316
165 156 161 180 181 176 172 177 199 221 223 216 220 221 212 213 225 231 235 235 216 208 205 139 107 92 34 356 330 276 198 168 15 38 78 79 67 68 60 54 62 57 47 44 38 29 27 22 16 16 17 13 9 8 5 1 360 359 356 354 355 4 16 22 21 16 9 4 360 355 351 348 346 343 339 335 332 329 326 324 321 318 315 313 311
167 158 156 168 182 190 199 201 202 214 222 218 216 215 206 205 216 224 232 235 221 212 205 153 131 115 67 48 63 114 136 135 75 72 84 79 74 74 63 58 59 54 45 39 32 24 21 16 12 13 13 9 8 7 3 1 2 359 354 357 9 21 24 20 14 9 5 1 354 345 340 337 335 332 328 326 324 322 320 319 317 315 315 314 313
165 158 159 169 180 190 209 220 207 207 216 213 198 179 180 200 213 216 220 221 213 213 214 175 146 129 108 94 93 97 104 106 89 83 81 75 71 67 59 56 55 51 44 37 29 23 20 13 9 10 10 7 7 7 4 4 4 360 358 7 20 19 11 8 8 7 5 1 354 343 336 332 329 327 326 325 324 322 321 320 319 318 317 316 314
170 165 168 170 176 191 210 217 205 202 208 201 176 166 183 204 212 213 214 211 201 201 213 190 153 134 122 116 112 98 91 89 85 82 81 75 67 59 54 54 53 49 41 29 18 16 16 12 8 9 7 3 2 4 3 4 6 6 8 15 17 10 3 3 5 3 358 355 350 342 336 332 330 327 326 326 325 323 322 321 321 319 318 317 316
189 186 186 181 182 196 209 206 192 192 195 192 186 189 197 206 209 209 208 201 189 188 192 173 144 133 125 115 109 104 98 90 85 84 81 73 65 59 54 52 49 43 33 22 16 14 11 7 3 1 359 359 2 2 1 3 7 3 352 352 359 0 357 357 358 353 349 348 347 342 337 334 330 327 326 325 323 322 321 320 320 318 317 317 317
202 203 201 192 186 191 195 188 185 187 184 184 192 195 194 201 206 199 180 143 147 161 160 144 133 133 132 121 107 98 94 86 81 80 77 73 73 69 57 48 43 35 23 15 10 8 4 359 357 357 355 354 356 357 358 2 5 357 340 339 346 349 348 349 350 346 344 346 346 343 338 333 328 325 324 322 321 321 320 319 319 318 317 317 318
213 211 202 191 184 182 181 181 184 183 180 191 202 198 187 190 198 191 170 162 171 171 152 144 140 126 114 107 97 89 89 86 77 74 75 73 69 63 53 43 36 27 15 6 2 1 359 355 353 352 350 349 351 353 352 352 355 352 337 333 337 339 340 343 344 341 339 340 340 338 337 333 326 321 320 319 320 320 319 319 318 318 318 317 317
204 210 206 194 185 182 179 178 181 187 195 203 207 199 183 179 183 179 167 165 173 180 172 146 129 112 102 102 97 88 88 85 76 70 67 60 53 50 45 37 26 11 1 356 354 350 348 348 346 345 346 345 345 345 344 343 343 335 323 323 328 333 336 337 336 335 334 335 334 334 335 331 325 319 317 317 317 317 317 316 316 315 315 315 315
194 201 203 191 182 180 175 173 180 193 198 193 185 180 177 176 176 173 165 155 156 161 150 122 111 107 107 108 102 92 86 81 71 61 54 45 39 33 23 15 9 360 351 349 346 342 342 344 342 340 341 340 338 339 340 336 327 319 318 321 325 329 331 332 331 331 331 331 330 331 331 327 320 317 315 314 314 314 313 313 313 312 313 313 314
189 191 193 186 183 180 171 170 180 188 181 173 173 172 171 171 169 163 156 151 149 147 136 122 118 118 110 104 100 95 87 78 65 56 46 30 20 16 11 7 2 353 344 340 338 336 337 336 335 336 337 335 333 335 334 324 317 318 321 323 323 326 328 329 329 328 327 327 328 330 328 321 317 316 314 312 312 312 311 310 310 311 312 313 313
Height
818 820 821 822 823 824 826 827 829 830 831 832 834 835 836 837 838 839 840 842 843 844 846 846 848 849 850 851 851 852 853 855 856 856 857 858 858 859 860 860 861 861 861 861 861 862 862 862 863 863 864 864 864 864 864 864 864 863 863 863 863 864 864 864 864 863 863 863 862 861 860 859 857 856 856 854 854 853 852 851 850 849 848 846 845
816 818 819 821 822 823 824 826 827 829 829 831 832 833 835 836 837 838 839 841 842 843 844 845 847 848 848 850 850 851 852 853 855 855 856 857 857 858 859 859 860 860 860 861 861 861 862 862 862 862 863 863 863 863 863 863 863 862 862 862 862 862 863 863 863 863 862 862 862 861 860 859 857 856 855 854 853 853 852 851 850 849 848 846 846
814 816 818 819 820 822 823 824 826 827 828 830 831 832 834 835 836 838 839 840 841 843 844 844 846 847 848 849 849 851 851 852 854 855 855 856 857 857 858 858 859 859 859 860 860 861 861 861 861 861 862 862 861 862 862 862 862 862 862 862 862 862 863 863 863 862 862 861 861 861 859 858 857 856 855 854 853 852 851 850 849 849 848 847 846
812 814 816 817 818 820 822 822 824 826 827 829 830 831 833 834 836 837 838 839 840 842 843 844 845 846 847 848 849 850 851 852 853 854 855 855 856 857 857 858 858 858 858 859 859 860 860 860 860 860 861 861 861 861 861 861 862 862 862 862 862 862 862 863 862 862 862 861 861 860 859 858 857 856 855 854 853 852 851 850 849 848 847 846 845
810 811 814 816 817 818 820 821 823 824 826 827 829 830 832 833 835 836 837 838 839 841 842 843 844 845 846 848 848 850 850 851 853 853 854 855 855 856 857 857 857 857 858 858 858 859 859 859 859 859 860 860 860 860 861 861 861 861 861 861 862 862 862 862 862 862 862 861 860 859 858 857 856 855 854 853 852 852 851 850 849 847 846 845 844
808 810 812 814 815 817 819 820 822 823 825 827 828 830 831 833 835 836 837 838 839 840 842 843 844 845 846 847 848 849 850 851 852 853 854 854 854 855 855 856 856 857 857 857 858 858 858 858 858 858 859 859 859 860 860 860 861 861 861 861 861 861 861 861 861 861 861 860 859 858 857 856 856 855 854 853 852 851 850 848 847 845 844 844 843
806 808 811 813 815 816 817 819 821 823 825 826 828 830 831 833 834 836 837 838 839 840 841 842 844 845 846 847 848 849 849 850 851 852 852 853 853 854 854 854 855 855 855 856 857 857 857 857 857 857 857 858 858 859 859 859 860 860 860 860 860 860 860 860 860 860 859 859 858 857 856 856 855 854 853 852 851 850 848 846 845 844 844 843 842
805 807 810 812 814 815 817 819 821 822 824 826 827 829 830 831 833 835 837 838 839 840 841 842 843 844 845 846 847 848 849 849 850 850 851 852 852 853 853 854 854 854 854 854 855 856 856 855 856 856 856 856 857 858 858 858 859 859 859 859 859 859 859 859 859 859 858 858 857 856 856 855 854 852 851 850 849 848 847 846 845 844 843 842 841
804 806 809 811 813 815 817 819 820 822 824 825 827 828 829 830 831 833 835 836 838 839 840 841 843 843 845 845 846 847 848 848 849 850 850 851 851 852 852 853 853 853 854 854 854 854 854 854 854 854 854 855 856 856 857 857 857 858 858 858 858 858 858 858 858 857 857 857 856 855 854 853 852 851 851 850 849 848 847 846 845 843 842 841 840
803 805 808 810 813 815 817 818 820 822 823 825 826 827 828 829 830 831 833 834 836 837 838 840 841 842 843 844 846 847 847 847 848 848 849 850 851 852 852 852 852 853 853 853 853 853 853 853 853 853 853 853 854 855 855 856 856 856 857 857 857 858 857 857 857 856 856 855 855 854 853 853 852 851 851 850 849 848 847 846 844 843 841 840 838
801 803 805 809 812 815 818 820 821 823 823 825 826 826 828 828 829 830 831 833 834 835 837 838 839 841 842 843 845 846 846 846 847 847 848 849 850 851 851 851 851 852 852 852 852 852 852 852 852 853 853 853 853 853 853 854 854 855 855 855 856 856 856 856 856 855 855 854 854 854 853 852 852 851 851 850 849 848 847 846 845 843 842 840 838
801 801 803 808 812 815 819 823 825 826 826 825 825 825 826 827 828 829 830 832 833 834 836 837 838 839 840 842 843 844 844 845 846 847 847 848 849 850 851 851 851 851 851 851 851 851 851 852 852 853 854 853 853 852 853 853 853 853 854 854 854 855 855 855 855 854 854 853 853 853 852 852 851 851 850 849 848 847 846 845 845 844 842 841 839
801 802 803 807 810 814 818 823 826 828 828 825 823 823 824 825 826 827 828 831 833 834 836 837 838 839 840 841 841 841 843 844 845 846 846 846 848 848 849 850 850 851 850 850 850 850 850 851 851 851 851 852 852 852 852 852 852 852 853 853 853 853 853 853 853 852 852 852 851 851 851 851 850 850 849 849 847 846 845 844 844 843 842 840 838
802 805 806 808 811 814 817 820 823 825 824 822 821 822 823 824 825 826 828 830 833 836 838 838 838 839 839 839 840 840 841 843 843 844 845 846 847 847 848 849 849 850 850 850 850 849 849 850 850 850 850 850 851 852 852 852 851 852 853 853 852 852 852 852 852 851 851 850 850 850 850 850 850 849 848 848 847 846 844 844 843 842 841 839 838
803 806 809 810 813 815 816 819 821 821 820 820 819 821 822 822 823 825 826 829 833 838 841 840 839 839 839 839 840 840 840 841 842 843 844 845 846 846 847 848 849 850 850 849 848 848 848 849 849 849 849 850 850 851 851 851 851 852 853 853 852 852 852 851 851 851 850 850 850 850 849 849 849 848 847 847 846 845 844 843 842 841 839 837 836
802 804 807 810 812 813 814 816 819 819 819 818 818 820 821 822 823 825 826 828 833 838 841 839 838 838 839 840 840 840 840 841 842 842 843 844 845 846 847 847 848 849 848 848 848 847 848 848 848 848 849 849 850 850 851 851 851 852 852 852 851 851 851 851 850 850 850 849 849 849 848 848 847 846 846 845 844 843 842 841 840 838 837 836 834
801 803 806 808 810 810 810 813 817 818 818 818 819 820 821 823 824 825 826 828 832 836 837 835 835 836 837 838 839 839 840 841 841 842 843 844 844 845 846 847 847 848 847 848 848 848 848 848 848 848 849 849 849 849 849 850 850 850 850 849 850 850 849 849 848 848 848 848 847 847 847 846 846 845 844 844 843 842 841 839 837 836 836 835 834
801 803 805 806 808 809 811 813 816 817 818 820 821 821 822 824 824 825 826 827 830 833 834 833 833 834 834 836 837 838 839 840 840 841 842 843 844 844 845 846 846 847 847 848 848 848 848 848 848 848 848 848 848 848 848 848 848 848 848 848 848 848 848 847 847 846 846 846 846 846 845 845 844 843 843 843 842 842 840 838 837 837 836 835 834
801 802 803 804 806 809 811 813 815 816 818 820 821 822 823 823 824 825 826 827 828 831 833 833 833 834 834 836 836 837 838 839 840 840 841 842 843 843 844 845 845 846 847 847 848 848 848 848 848 848 847 847 847 847 847 847 847 846 846 846 847 847 846 846 846 845 845 845 844 844 844 844 843 843 843 843 842 841 839 838 837 837 836 835 834
801 802 803 803 805 808 809 812 813 814 816 817 818 820 821 821 823 824 826 827 828 830 832 833 833 834 835 836 837 837 838 838 839 840 840 842 843 843 843 844 845 845 846 847 848 848 848 848 848 848 848 847 847 847 847 847 846 846 846 845 846 846 846 845 845 845 845 845 844 844 844 844 843 843 843 843 842 841 839 838 837 836 835 834 833
803 804 804 805 806 808 808 811 813 814 815 815 817 819 820 821 822 822 824 826 828 830 832 833 833 834 835 837 837 837 838 839 839 839 840 842 843 843 843 844 844 845 845 846 847 848 847 847 848 848 848 848 848 847 847 847 846 846 846 845 845 845 845 845 845 845 845 845 845 844 844 844 844 843 843 843 843 841 839 838 837 836 834 833 832
806 806 806 807 808 809 810 812 813 815 816 816 818 820 821 822 822 823 824 826 827 830 833 834 835 836 837 838 837 837 838 839 838 839 841 842 843 843 843 844 845 845 845 845 846 847 847 848 848 848 848 848 848 847 847 847 847 847 846 845 845 846 845 845 845 845 845 845 845 845 844 844 844 844 844 843 843 842 839 838 837 836 835 833 832
809 809 810 810 810 811 813 814 815 816 818 819 820 822 823 824 825 826 827 828 829 831 834 835 837 838 838 839 838 837 838 839 839 840 842 843 843 843 843 844 845 845 846 846 847 847 848 848 848 848 848 848 847 847 847 847 847 846 846 845 846 846 846 846 846 846 845 845 845 845 845 845 845 844 844 844 843 842 840 839 837 836 834 833 832
812 812 813 813 814 814 816 816 817 819 820 821 823 824 826 827 828 829 830 831 832 834 835 837 838 839 840 839 838 839 839 840 841 842 843 844 845 845 845 846 846 846 846 846 847 848 848 848 848 848 848 848 847 847 847 847 847 846 845 845 845 846 846 847 847 846 846 845 845 845 845 845 845 845 845 844 843 842 841 839 838 836 834 833 831
814 814 815 816 816 817 818 819 820 821 821 823 824 826 828 829 830 831 833 834 835 836 837 838 839 840 841 840 840 840 841 841 842 844 845 846 847 847 847 847 847 847 846 846 847 847 847 847 847 847 848 848 847 847 847 847 846 846 845 845 845 846 846 847 847 847 847 846 846 845 845 845 845 845 844 844 843 842 841 840 838 836 834 832 831
815 816 817 818 818 819 819 820 822 822 823 824 825 827 828 829 831 832 833 835 836 837 838 839 840 841 842 842 841 841 842 843 844 845 847 848 849 848 848 847 847 847 846 846 847 847 847 847 847 848 848 848 847 847 847 846 846 846 846 846 846 846 847 847 848 848 848 847 847 846 845 845 845 844 844 843 843 842 841 840 838 836 835 833 830
816 817 818 819 820 821 821 822 823 824 825 826 826 828 830 831 832 833 834 835 836 836 838 839 840 841 842 842 843 843 843 844 846 847 848 849 849 849 848 847 847 846 846 846 846 847 847 847 847 847 847 847 847 846 846 846 846 846 846 847 847 847 848 848 849 849 849 848 847 847 846 845 844 843 843 843 843 842 841 840 838 836 835 833 831
817 818 819 819 820 821 822 823 824 826 827 827 828 830 832 833 833 833 834 835 835 836 838 838 839 840 841 842 843 844 844 845 846 848 849 849 849 849 848 847 846 846 846 846 846 846 847 846 847 847 847 847 847 846 846 847 847 847 847 847 848 848 848 849 849 849 849 849 848 847 846 845 844 844 843 843 842 842 841 839 838 837 835 834 832
819 820 820 820 821 822 823 823 825 827 828 829 830 832 834 835 835 835 836 836 837 837 838 838 839 840 840 842 843 844 844 846 847 848 849 849 849 849 848 847 846 846 846 846 846 846 846 846 847 847 847 847 847 847 847 848 848 848 848 849 849 849 849 849 849 850 850 849 848 847 846 845 845 844 844 843 842 841 840 839 838 837 835 834 833
822 822 822 823 823 824 824 825 826 828 830 831 833 835 836 836 837 837 838 838 839 839 839 839 841 841 841 842 843 844 845 846 848 849 849 849 849 848 847 847 846 846 846 846 846 846 846 847 848 848 849 849 849 849 849 849 849 850 850 850 850 850 850 850 851 851 850 850 849 848 847 846 846 845 844 843 842 841 840 839 838 837 835 834 833
824 824 824 825 825 825 826 826 826 828 831 833 835 836 837 838 839 839 839 840 840 840 840 841 842 843 843 843 844 845 846 847 848 849 849 849 849 849 848 848 848 847 847 847 847 847 847 848 849 849 850 851 851 851 852 851 851 852 851 851 851 851 851 852 851 851 851 850 850 849 848 847 847 846 845 844 843 842 841 840 839 838 836 835 834
825 826 826 827 827 827 827 827 828 830 832 833 836 837 838 839 840 841 841 841 841 842 842 843 843 844 844 845 845 846 847 847 848 849 849 849 850 849 849 849 849 849 848 848 848 848 848 849 850 851 852 852 853 853 853 853 853 853 853 853 853 852 853 853 852 852 852 851 850 849 849 848 847 846 845 845 844 843 842 841 839 838 837 836 835
826 826 827 828 828 829 829 829 831 832 834 835 837 838 839 840 841 842 843 843 843 843 843 843 844 845 845 846 846 847 847 848 849 849 849 850 850 849 850 850 850 850 850 850 850 851 851 851 852 853 854 854 854 854 854 854 854 854 854 854 854 854 854 853 852 852 852 851 850 850 849 849 848 847 846 845 844 843 842 841 840 839 838 837 836
828 828 828 829 829 830 831 832 833 834 836 837 838 838 839 840 841 842 843 843 843 844 844 844 845 845 845 846 847 847 848 848 849 849 850 850 850 850 850 851 851 851 851 852 852 853 853 854 855 855 856 856 856 856 856 855 855 855 855 855 855 854 854 854 853 852 852 851 851 850 850 849 848 847 846 845 844 844 843 842 841 840 839 838 837
830 830 830 830 831 832 833 833 835 836 837 838 839 839 840 840 840 841 842 843 843 844 845 845 845 845 846 846 847 847 848 849 849 850 850 850 851 851 851 851 852 852 853 853 854 855 855 856 856 857 857 857 857 857 857 857 857 856 856 856 855 855 855 854 854 853 853 852 851 851 850 849 848 848 847 846 845 845 844 843 842 841 841 840 839
832 832 831 831 832 834 834 834 835 836 838 839 840 840 840 841 841 841 842 842 842 843 845 846 846 846 847 847 847 848 848 849 850 850 850 851 852 852 852 852 853 854 854 855 856 856 857 857 858 858 858 858 858 858 858 858 857 857 857 857 856 855 855 855 854 854 853 852 852 851 850 849 849 848 848 847 847 846 845 844 844 843 842 841 840
832 832 832 832 833 834 834 835 835 837 838 840 841 841 842 842 843 842 842 842 842 843 844 846 846 847 848 848 848 849 849 850 850 851 851 852 852 852 853 853 854 855 855 856 857 857 858 858 858 859 859 859 859 859 858 858 858 857 857 857 856 856 855 855 854 854 853 852 852 851 851 850 849 849 848 848 847 847 846 846 845 844 842 841 839
831 832 832 832 833 833 834 835 836 837 839 840 842 843 843 844 844 843 842 842 843 843 844 845 846 847 848 848 849 850 850 851 851 852 852 853 853 853 854 855 856 856 856 857 858 858 858 859 859 859 859 859 859 859 859 858 858 858 857 857 856 856 855 855 854 854 853 853 852 852 852 851 850 849 848 848 848 847 846 845 844 843 841 840 838
831 832 832 832 832 832 833 835 836 837 839 841 842 844 845 844 844 844 843 843 843 844 845 846 846 847 848 849 850 851 851 851 852 852 852 853 854 855 856 856 857 857 858 858 859 859 859 860 860 860 860 860 860 859 859 859 858 858 857 857 856 856 856 855 855 854 854 854 853 853 852 851 850 849 849 849 848 847 846 845 843 842 840 838 837
831 831 832 832 832 832 832 834 835 837 839 841 842 844 845 845 845 844 844 844 844 845 846 846 847 848 849 849 850 851 852 852 852 852 852 853 855 856 857 857 858 858 859 859 860 860 860 861 861 861 861 861 860 860 860 859 859 858 858 857 857 857 856 856 855 855 854 854 854 853 853 852 851 851 850 850 849 848 847 845 844 842 840 838 837
829 830 831 831 832 832 832 833 835 837 839 840 841 842 844 845 845 844 844 844 845 846 847 847 848 849 850 850 851 852 853 853 853 852 853 854 856 857 857 858 859 859 860 860 861 861 861 862 862 862 861 861 861 861 860 860 859 859 858 858 858 857 857 857 856 855 855 855 855 854 853 853 852 852 851 850 849 848 847 845 844 842 840 838 836
828 829 830 830 832 832 832 833 835 836 838 839 840 841 842 844 844 845 845 845 845 846 847 848 848 850 851 851 851 852 853 854 854 854 854 855 856 857 858 859 859 860 860 861 861 862 862 862 862 862 862 862 862 861 861 861 860 860 859 859 859 858 858 857 857 856 856 856 856 855 855 854 854 853 852 851 849 848 846 845 843 841 839 837 835
828 828 829 830 832 832 833 834 835 835 837 838 839 840 842 843 845 846 846 846 846 847 847 848 849 850 852 852 852 851 852 854 855 855 855 856 857 858 858 859 859 860 861 861 862 862 862 862 863 863 863 863 863 862 862 862 861 861 860 860 859 858 858 858 858 857 857 856 856 856 856 855 854 853 852 850 849 847 846 844 842 840 838 836 834
828 828 829 830 831 832 833 834 835 835 836 838 839 840 842 844 846 846 847 847 848 848 848 849 849 851 852 853 853 853 854 854 855 856 856 857 858 858 859 859 860 860 861 862 862 863 863 863 863 863 863 863 863 863 863 862 862 861 861 860 859 859 859 859 859 858 857 857 856 856 855 854 853 852 850 849 848 846 844 843 841 839 837 835 833
828 829 830 830 831 832 833 833 834 835 836 837 838 840 842 844 845 846 847 847 848 849 849 849 850 851 852 853 853 854 855 855 856 857 857 858 858 859 860 860 860 861 862 862 863 863 863 864 864 864 864 864 863 863 863 862 862 862 861 860 859 859 859 859 859 858 858 857 856 855 854 853 852 851 849 848 847 845 843 842 840 838 836 834 832
829 829 829 830 831 832 832 833 834 835 836 837 839 841 842 844 846 846 847 847 848 849 849 849 850 852 852 853 854 855 855 856 857 857 858 859 859 860 860 860 861 862 862 863 863 863 863 864 864 864 864 864 863 863 863 862 862 861 860 859 859 859 859 859 858 858 857 856 855 854 853 852 851 850 849 847 846 844 843 841 840 838 835 833 831
829 830 830 830 830 831 832 833 834 835 837 839 840 841 843 844 845 845 846 847 848 849 849 849 850 851 852 853 854 855 856 857 857 858 859 859 859 860 860 861 861 862 862 863 863 863 863 863 863 863 863 863 863 863 862 862 862 861 859 858 859 859 858 858 857 856 855 855 854 853 852 851 850 849 848 846 845 844 842 841 839 837 835 833 831
829 830 830 830 830 831 832 833 835 836 838 839 840 840 842 843 844 845 846 848 848 849 849 850 850 851 852 853 854 855 856 857 858 858 859 859 859 860 860 861 861 862 862 862 863 863 862 863 863 862 862 862 862 862 861 861 861 860 859 858 858 858 857 857 856 855 854 854 853 852 851 850 849 848 846 845 844 843 842 840 839 837 835 833 831
828 830 830 830 830 831 832 834 836 837 838 839 839 839 840 842 844 845 846 847 848 849 849 849 850 851 852 853 854 855 856 857 858 858 859 859 859 860 860 860 861 862 862 862 862 862 862 862 862 862 862 862 861 861 861 861 860 860 859 858 858 857 857 856 855 854 854 853 852 851 850 849 848 847 846 845 844 843 841 840 838 836 835 833 831
828 830 830 831 831 832 833 834 836 837 838 838 839 840 841 843 844 845 846 846 847 848 849 849 850 851 852 853 854 855 856 857 858 858 859 859 859 860 860 860 861 861 861 861 861 861 861 861 861 861 861 861 861 861 861 860 860 859 859 858 858 857 856 856 855 854 854 853 852 851 850 848 847 847 845 844 843 842 841 839 837 836 834 832 830
828 829 830 831 831 832 833 834 836 837 838 839 840 841 842 843 844 844 845 846 847 848 849 850 851 852 853 854 855 856 856 857 858 858 859 859 859 859 859 860 860 860 861 861 861 861 861 861 861 861 861 861 861 861 861 860 859 859 859 858 858 857 856 856 855 854 853 852 851 850 849 848 847 846 845 844 843 841 840 838 836 835 833 831 829